Location: North Runcton
(52.7000°N, 0.4333°E)
Time: 21:03:46
(UTC+00:00)

COBE Rocket - Pass Details

Date: 19 May 2025
Orbit: 676 x 772 km, 97.1° (Epoch: 12 June)

Event Time Altitude Azimuth Distance (km) Brightness Sun altitude
Rises 21:50:20 0° 17° (NNE) 3,227 7.9 -12.5°
Reaches altitude 10° 21:52:45 10° 24° (NNE) 2,308 7.0 -12.6°
Maximum altitude 21:57:37 44° 96° (E) 1,067 4.5 -13.0°
Enters shadow 22:00:58 19° 160° (SSE) 1,771 5.2 -13.2°
